Weather in Kuznetsovo

Russia / Mari El Republic     56°09′57″N   46°42′42″E
temp.,
°C
wind,
m/s
gust,
m/s
humid.,
%
clouds,
%
prec.,
mm/h
press.,
hPa
HPBL,
m
7 august, sun
sun700:00+19se116910 0.0 102111
03:00+17ese11789 0.0 102111
06:00+20s12766 0.0 102169
09:00+25s23565 0.0 1021556
12:00+28s33445 0.0 10201615
15:00+27s234738 0.0 10191220
18:00+26sse235629 0.0 101954
21:00+21s226412 0.0 101916
8 august, mon
mon800:00+19s22705 0.0 101911
03:00+18sse22715 0.0 101912
06:00+20ssw11695 0.0 102041
09:00+26sw12515 0.0 1020470
12:00+29sw22395 0.0 10201868
15:00+29sw22345 0.0 10192364
18:00+26ssw245780 0.0 1019101
21:00+22se1159100 0.0 102014
9 august, tue
tue900:00+20sw116459 0.0 102011
03:00+18w117249 0.0 102011
06:00+20se00726 0.0 102136
09:00+26s11495 0.0 1020518
12:00+29ssw23405 0.0 10201544
15:00+29ssw32375 0.0 10192175
18:00+26s245498 0.0 101876
21:00+20wnw6107066 0.1 1019304
10 august, wed
wed1000:00+16e379596 0.9 1018137
03:00+16nne1196100 1.7 101922
06:00+17sse1193100 0.8 101842
09:00+22ese117191 1.0 1018393
12:00+22wnw227299 0.0 1018306
15:00+24wnw336263 0.0 1018812
18:00+20wnw4681100 0.0 1018412
21:00+18wnw2493100 0.0 101895
11 august, thu
thu1100:00+17sw2293100 0.1 101878
03:00+16sw3695100 0.6 1017303
06:00+16wsw379387 0.0 1017323
09:00+18wnw567685 0.0 1018807
12:00+18nw4675100 0.1 1019963
15:00+19nnw576457 0.1 10201171
18:00+19n48632 0.0 10201005
21:00+13nnw22780 0.0 102112